FW4125 Weather Reports


Display with metric or nautical units.
time (UTC)temp
F
wind
direction
speed
MPH
gust
MPH
rain 1hr
in
rain 24hr
in
rain mn
in
humidity
%
barometer
mb
20260506004539 75 77 1.0 4.0 0.00 0.00 0.00 48
20260506003046 76 34 1.0 5.0 0.00 0.00 0.00 47
20260506001551 78 60 0.0 3.0 0.00 0.00 0.00 46
20260506000054 79 59 1.0 5.0 0.00 0.00 0.00 45
20260505234607 81 58 1.0 5.0 0.00 0.00 0.00 44
20260505233054 82 66 2.0 6.0 0.00 0.00 0.00 42
20260505231607 84 245 1.0 4.0 0.00 0.00 0.00 40
20260505230057 86 119 1.0 6.0 0.00 0.00 0.00 38
20260505224600 87 354 1.0 3.0 0.00 0.00 0.00 37
20260505223001 88 256 1.0 4.0 0.00 0.00 0.00 35
20260505221503 89 217 1.0 5.0 0.00 0.00 0.00 34
20260505220005 90 73 1.0 6.0 0.00 0.00 0.00 31
20260505214513 92 213 1.0 3.0 0.00 0.00 0.00 32
20260505213008 92 293 1.0 6.0 0.00 0.00 0.00 32
20260505211510 92 252 2.0 7.0 0.00 0.00 0.00 32
20260505210007 92 268 2.0 5.0 0.00 0.00 0.00 36 720.7
20260505204510 91 265 2.0 5.0 0.00 0.00 0.00 37 720.7
20260505203009 90 224 2.0 7.0 0.00 0.00 0.00 38 720.7
20260505201513 90 257 2.0 7.0 0.00 0.00 0.00 38 720.7
20260505200013 90 233 0.0 7.0 0.00 0.00 0.00 40 720.7
20260505194509 89 245 3.0 7.0 0.00 0.00 0.00 42 720.7
20260505193010 88 221 3.0 6.0 0.00 0.00 0.00 44 720.7
20260505191510 86 233 3.0 7.0 0.00 0.00 0.00 46 720.7
20260505190007 85 203 1.0 9.0 0.00 0.00 0.00 47 720.7
20260505184502 84 235 2.0 9.0 0.00 0.00 0.00 49 720.7
20260505183107 83 261 3.0 10.0 0.00 0.00 0.00 49 720.7
20260505181600 83 224 3.0 8.0 0.00 0.00 0.00 49 720.7
20260505180105 82 235 3.0 8.0 0.00 0.00 0.00 51 720.7
20260505174605 82 221 3.0 11.0 0.00 0.00 0.00 52 720.7
20260505173059 81 232 5.0 11.0 0.00 0.00 0.00 52 720.7
20260505171600 81 230 2.0 10.0 0.00 0.00 0.00 53 720.7
20260505170059 80 235 3.0 9.0 0.00 0.00 0.00 54 720.7
20260505164605 79 208 2.0 8.0 0.00 0.00 0.00 56 720.7
20260505163057 78 234 2.0 11.0 0.00 0.00 0.00 56 809.3
20260505161604 78 249 3.0 7.0 0.00 0.00 0.00 56 809.3
20260505153054 75 228 3.0 8.0 0.00 0.00 0.00 59 809.3
20260505151600 75 218 1.0 8.0 0.00 0.00 0.00 60 809.3
20260505140113 72 227 3.0 7.0 0.00 0.00 0.00 66 809.3
20260505124520 70 214 2.0 5.0 0.00 0.00 0.00 67 809.3
20260505123019 70 231 2.0 5.0 0.00 0.00 0.00 67 809.3
20260505121522 70 240 1.0 6.0 0.00 0.00 0.00 66 809.3
20260505120032 70 236 2.0 5.0 0.00 0.00 0.00 66 809.3
20260505114523 70 229 2.0 7.0 0.00 0.00 0.00 66 809.3
20260505113027 70 228 2.0 5.0 0.00 0.00 0.00 66 809.3
20260505111531 70 224 2.0 7.0 0.00 0.00 0.00 65 809.3
20260505101541 71 232 2.0 6.0 0.00 0.00 0.00 64 809.3
20260505100032 71 247 2.0 9.0 0.00 0.00 0.00 64 809.3
20260505094538 71 267 3.0 6.0 0.00 0.00 0.00 63 809.3
20260505093034 71 200 2.0 10.0 0.00 0.00 0.00 63 809.3
20260505091542 71 229 2.0 11.0 0.00 0.00 0.00 63 809.3
20260505090041 72 233 3.0 8.0 0.00 0.00 0.00 62 809.3
20260505084543 72 200 2.0 8.0 0.00 0.00 0.00 62 809.3
20260505083041 72 185 3.0 6.0 0.00 0.00 0.00 62 809.3
20260505081544 72 177 4.0 10.0 0.00 0.00 0.00 62 809.3
20260505080044 72 229 3.0 8.0 0.00 0.00 0.00 61 809.3
20260505074540 72 235 2.0 9.0 0.00 0.00 0.00 61 809.3
20260505073049 72 207 2.0 8.0 0.00 0.00 0.00 60 809.3
20260505071552 73 222 2.0 8.0 0.00 0.00 0.00 59 809.3
20260505070041 73 229 2.0 8.0 0.00 0.00 0.00 58 809.3
20260505064548 73 210 2.0 7.0 0.00 0.00 0.00 57 809.3
20260505063043 73 226 2.0 7.0 0.00 0.00 0.00 57 809.3
20260505061548 74 216 1.0 5.0 0.00 0.00 0.00 56 809.3
20260505060049 74 241 1.0 7.0 0.00 0.00 0.00 56 809.3
20260505054543 73 221 2.0 7.0 0.00 0.00 0.00 56 809.3
20260505053042 73 209 2.0 6.0 0.00 0.00 0.00 56 809.3
20260505051558 73 194 2.0 5.0 0.00 0.00 0.00 56 809.3
20260505041602 74 167 2.0 5.0 0.00 0.00 0.00 55 809.3
20260505034502 75 207 2.0 5.0 0.00 0.00 0.00 54 809.3
20260505033004 75 175 2.0 7.0 0.00 0.00 0.00 53 809.3
20260505031509 75 175 2.0 8.0 0.00 0.00 0.00 53 809.3
20260505030008 75 171 2.0 7.0 0.00 0.00 0.00 53 809.3
20260505024515 75 214 2.0 6.0 0.00 0.00 0.00 53 809.3
20260505023022 76 175 2.0 7.0 0.00 0.00 0.00 52 809.3
20260505021529 76 172 2.0 5.0 0.00 0.00 0.00 52 809.3
20260505020026 76 226 1.0 6.0 0.00 0.00 0.00 52 809.3
20260505014528 76 198 1.0 5.0 0.00 0.00 0.00 51 809.3
20260505013036 76 190 2.0 7.0 0.00 0.00 0.00 51 809.3
20260505011532 76 181 1.0 6.0 0.00 0.00 0.00 50 809.3
20260505010035 77 237 3.0 7.0 0.00 0.00 0.00 49 809.3